Airfield :
LOGIN :

Register | Disclaimer

   EN    FR    IT 

 










Legend :    VFR   Marginal VFR   IFR   Intensive IFR   Very Intensive IFR
Visi :
Ceiling :
>= 8 km
>= 3000ft
5 to 8 km
1000 to 3000 ft
1500m to 5 km
500 to 1000 ft
800 to 1500m
200 to 500 ft
< 800m
< 200 ft
Symbols :   Thunderstorms  Fog  Heavy snow  Heavy precipitations  Wind > 20 kt
SIGMETs :     Misc.  Thunderstorms  Icing  Turbulence  Mountain Waves  Volcanic Ashes







- Airport Elevation : 392 ft
- IATA code : CDG
- Download approach charts


LFPG - Paris-Aeroport Charles De Gaulle

CURRENT METAR :
  • 201730Z 35005KT 300V020 9999 FEW033 BKN045 24/15 Q1020 NOSIG

EXPIRED METARs :
  • 201700Z 32004KT 270V350 9999 FEW033 BKN044 24/16 Q1021 NOSIG
  • 201630Z 33005KT 300V040 9999 FEW033 BKN043 24/15 Q1021 NOSIG
  • 201600Z 32004KT 250V010 9999 FEW030 BKN041 24/16 Q1021 NOSIG
  • 201530Z 33005KT 280V350 9999 FEW030 BKN041 24/15 Q1021 NOSIG
  • 201500Z 30004KT 230V330 9999 FEW023 BKN040 24/15 Q1021 NOSIG

TAF TAF LFPG
Valid from the 20 at 18:00 until the 22 at 00:00 UTC


201700Z 2018/2124 34005KT CAVOK TX28/2115Z TN17/2104Z
PROB30
TEMPO 2106/2108 BKN004
ATIS : +33 1 48 62 10 92
No reported NOTAMs for that airfield.



MET'MAP, your aeronautical weather chart ! - Copyright ORBIFLY December 2007 - Disclaimer

ORBIFLY MET'MAP TEAM :

Programming & Development : Alexandra Zaïnal
Concept & Development : Baudouin d'Aumeries
Co-Development & Prog : Marc-Olivier Méhu
Technical & hardware support : Manuel Goepfert

Contact : metmap@orbifly.com




SOURCES & CREDITS :

   NOAA